This is the latest recevied weather packets stored in our database for station/object KA7RLM. If no packets are shown the sender has not sent any weather packets the latest 10 day(s).
| Time | Temp. | Humidity | Pressure | Rain* | Wind** | Luminosity | Snow |
|---|---|---|---|---|---|---|---|
| 1778002831 | 14.44° C | 81% | 1016.8 hPa | 0 mm | - | - | - |
| 1778001620 | 14.44° C | 81% | 1016.7 hPa | 0 mm | - | - | - |
| 1777997438 | 13.89° C | 84% | 1016.4 hPa | 0 mm | - | - | - |
| 1777996836 | 13.89° C | 85% | 1016.4 hPa | 0 mm | - | - | - |
| 1777992031 | 12.78° C | 87% | 1015.9 hPa | 0 mm | - | - | - |
| 1777987842 | 12.78° C | 88% | 1015.2 hPa | 0 mm | - | - | - |
| 1777986026 | 12.78° C | 88% | 1014.9 hPa | 0 mm | - | - | - |
| 1777985423 | 12.78° C | 88% | 1014.9 hPa | 0 mm | - | - | - |
| 1777982449 | 12.78° C | 89% | 1014.7 hPa | 0 mm | - | - | - |
| 1777977627 | 12.78° C | 89% | 1014.3 hPa | 0 mm | - | - | - |
| 1777973432 | 12.78° C | 91% | 1013.9 hPa | 0 mm | - | - | - |
| 1777971020 | 12.22° C | 94% | 1013.8 hPa | 0 mm | - | - | - |
| 1777956639 | 15.56° C | 77% | 1011.7 hPa | 0 mm | - | - | - |
| 1777954824 | 16.67° C | 72% | 1011.4 hPa | 0 mm | - | - | - |
| 1777952458 | 18.33° C | 66% | 1010.8 hPa | 0 mm | - | - | - |
| 1777943421 | 26.11° C | 46% | 1009.8 hPa | 0 mm | - | - | - |
| 1777942818 | 26.11° C | 46% | 1009.9 hPa | 0 mm | - | - | - |
| 1777940425 | 27.22° C | 45% | 1009.7 hPa | 0 mm | - | - | - |
| 1777938032 | 26.67° C | 45% | 1009.7 hPa | 0 mm | - | - | - |
| 1777936219 | 26.67° C | 44% | 1009.9 hPa | 0 mm | - | - | - |
| 1777933822 | 26.67° C | 44% | 1010.2 hPa | 0 mm | - | - | - |
| 1777930218 | 26.11° C | 46% | 1010.6 hPa | 0 mm | - | - | - |
| 1777924228 | 25° C | 46% | 1011.1 hPa | 0 mm | - | - | - |
| 1777923631 | 24.44° C | 48% | 1011.1 hPa | 0 mm | - | - | - |
| 1777923016 | 23.89° C | 49% | 1011.2 hPa | 0 mm | - | - | - |
* Rain latest hour (hover to see other rain measurements)
** Current wind speed in m/s (hover to see current wind gust speed)